Location: Avenches
(46.8809°N, 7.0410°E)
Time: 16:35:31
(UTC+00:00)

Mayak - Pass Details

Date: 30 March 2020
Orbit: 581 x 601 km, 97.5° (Epoch: 23 May)

Event Time Altitude Azimuth Distance (km) Brightness Sun altitude
Rises 22:12:35 0° 8° (N) 2,835 ? -35.7°
Reaches altitude 10° 22:14:47 10° 5° (N) 1,926 ? -35.8°
Enters shadow 22:15:18 13° 3° (N) 1,717 ? -35.9°
